| time (UTC) | temp F | wind direction | speed MPH | gust MPH | rain 1hr in | rain 24hr in | rain mn in | humidity % | barometer mb |
| 20260506131638 | 68 | 264 | 1.0 | 5.0 | 0.00 | 0.00 | 0.00 | 71 | 1011.3 |
| 20260506131133 | 68 | 186 | 0.0 | 8.0 | 0.00 | 0.00 | 0.00 | 72 | 1011.5 |
| 20260506130630 | 68 | 183 | 3.0 | 8.0 | 0.00 | 0.00 | 0.00 | 71 | 1011.3 |
| 20260506130128 | 68 | 147 | 1.0 | 5.0 | 0.00 | 0.00 | 0.00 | 72 | 1011.1 |
| 20260506125626 | 68 | 151 | 5.0 | 9.0 | 0.00 | 0.00 | 0.00 | 72 | 1011.0 |
| 20260506125123 | 67 | 176 | 4.0 | 13.0 | 0.00 | 0.00 | 0.00 | 73 | 1011.0 |
| 20260506124621 | 66 | 149 | 4.0 | 11.0 | 0.00 | 0.00 | 0.00 | 74 | 1011.0 |
| 20260506124119 | 66 | 190 | 3.0 | 10.0 | 0.00 | 0.00 | 0.00 | 74 | 1011.2 |
| 20260506123616 | 66 | 170 | 8.0 | 9.0 | 0.00 | 0.00 | 0.00 | 75 | 1011.2 |
| 20260506123115 | 66 | 256 | 2.0 | 9.0 | 0.00 | 0.00 | 0.00 | 75 | 1011.4 |
| 20260506122611 | 66 | 230 | 7.0 | 11.0 | 0.00 | 0.00 | 0.00 | 75 | 1011.3 |
| 20260506122109 | 66 | 198 | 3.0 | 12.0 | 0.00 | 0.00 | 0.00 | 75 | 1011.5 |
| 20260506121606 | 66 | 233 | 3.0 | 13.0 | 0.00 | 0.00 | 0.00 | 75 | 1011.2 |
| 20260506121102 | 66 | 189 | 2.0 | 13.0 | 0.00 | 0.00 | 0.00 | 75 | 1011.6 |
| 20260506120601 | 67 | 159 | 13.0 | 14.0 | 0.00 | 0.00 | 0.00 | 74 | 1011.5 |
| 20260506120058 | 66 | 176 | 7.0 | 11.0 | 0.00 | 0.00 | 0.00 | 74 | 1011.6 |
| 20260506115556 | 66 | 248 | 4.0 | 11.0 | 0.00 | 0.00 | 0.00 | 75 | 1011.4 |
| 20260506115054 | 66 | 185 | 5.0 | 10.0 | 0.00 | 0.00 | 0.00 | 76 | 1011.5 |
| 20260506114551 | 65 | 191 | 8.0 | 8.0 | 0.00 | 0.00 | 0.00 | 77 | 1011.6 |
| 20260506114049 | 65 | 131 | 0.0 | 10.0 | 0.00 | 0.00 | 0.00 | 77 | 1011.4 |
| 20260506113547 | 64 | 162 | 7.0 | 12.0 | 0.00 | 0.00 | 0.00 | 78 | 1011.4 |
| 20260506113044 | 64 | 220 | 3.0 | 17.0 | 0.00 | 0.00 | 0.00 | 79 | 1011.6 |
| 20260506112540 | 64 | 268 | 3.0 | 15.0 | 0.00 | 0.00 | 0.00 | 79 | 1011.7 |
| 20260506112038 | 64 | 239 | 4.0 | 16.0 | 0.00 | 0.00 | 0.00 | 79 | 1011.5 |
| 20260506111536 | 64 | 175 | 5.0 | 10.0 | 0.00 | 0.00 | 0.00 | 79 | 1011.4 |
| 20260506111032 | 64 | 204 | 9.0 | 15.0 | 0.00 | 0.00 | 0.00 | 80 | 1011.5 |
| 20260506110530 | 63 | 179 | 1.0 | 9.0 | 0.00 | 0.00 | 0.00 | 81 | 1011.4 |
| 20260506110027 | 63 | 255 | 2.0 | 11.0 | 0.00 | 0.00 | 0.00 | 82 | 1011.5 |
| 20260506105523 | 63 | 186 | 3.0 | 8.0 | 0.00 | 0.00 | 0.00 | 82 | 1011.2 |
| 20260506105021 | 63 | 124 | 2.0 | 11.0 | 0.00 | 0.00 | 0.00 | 82 | 1011.4 |
| 20260506104519 | 63 | 155 | 4.0 | 9.0 | 0.00 | 0.00 | 0.00 | 82 | 1011.3 |
| 20260506104016 | 62 | 238 | 3.0 | 14.0 | 0.00 | 0.00 | 0.00 | 83 | 1011.3 |
| 20260506103513 | 62 | 236 | 5.0 | 11.0 | 0.00 | 0.00 | 0.00 | 83 | 1011.3 |
| 20260506103010 | 62 | 141 | 2.0 | 11.0 | 0.00 | 0.00 | 0.00 | 83 | 1011.4 |
| 20260506102508 | 62 | 169 | 6.0 | 11.0 | 0.00 | 0.00 | 0.00 | 84 | 1011.3 |
| 20260506102005 | 62 | 158 | 5.0 | 14.0 | 0.00 | 0.00 | 0.00 | 84 | 1011.2 |
| 20260506101502 | 62 | 337 | 1.0 | 7.0 | 0.00 | 0.00 | 0.00 | 84 | 1011.1 |
| 20260506100959 | 62 | 168 | 1.0 | 4.0 | 0.00 | 0.00 | 0.00 | 84 | 1010.9 |
| 20260506100457 | 62 | 187 | 4.0 | 11.0 | 0.00 | 0.00 | 0.00 | 84 | 1011.0 |
| 20260506095955 | 62 | 119 | 2.0 | 14.0 | 0.00 | 0.00 | 0.00 | 84 | 1011.3 |
| 20260506095454 | 62 | 193 | 5.0 | 12.0 | 0.00 | 0.00 | 0.00 | 84 | 1011.3 |
| 20260506094949 | 62 | 166 | 2.0 | 6.0 | 0.00 | 0.00 | 0.00 | 84 | 1011.3 |
| 20260506094447 | 62 | 118 | 1.0 | 12.0 | 0.00 | 0.00 | 0.00 | 84 | 1011.1 |
| 20260506093945 | 62 | 148 | 2.0 | 8.0 | 0.00 | 0.00 | 0.00 | 84 | 1011.1 |
| 20260506093443 | 62 | 290 | 2.0 | 7.0 | 0.00 | 0.00 | 0.00 | 84 | 1011.1 |
| 20260506092940 | 62 | 150 | 0.0 | 9.0 | 0.00 | 0.00 | 0.00 | 84 | 1011.2 |
| 20260506092438 | 62 | 191 | 6.0 | 19.0 | 0.00 | 0.00 | 0.00 | 84 | 1011.2 |
| 20260506091934 | 62 | 173 | 3.0 | 11.0 | 0.00 | 0.00 | 0.00 | 84 | 1011.4 |
| 20260506091433 | 62 | 199 | 3.0 | 8.0 | 0.00 | 0.00 | 0.00 | 84 | 1011.2 |
| 20260506090930 | 62 | 208 | 2.0 | 6.0 | 0.00 | 0.00 | 0.00 | 84 | 1011.2 |
| 20260506090427 | 62 | 220 | 4.0 | 7.0 | 0.00 | 0.00 | 0.00 | 84 | 1011.3 |
| 20260506085924 | 61 | 177 | 3.0 | 9.0 | 0.00 | 0.00 | 0.00 | 85 | 1011.5 |
| 20260506085420 | 61 | 156 | 4.0 | 9.0 | 0.00 | 0.00 | 0.00 | 84 | 1011.5 |
| 20260506084917 | 61 | 157 | 2.0 | 16.0 | 0.00 | 0.00 | 0.00 | 84 | 1011.3 |
| 20260506084414 | 61 | 195 | 6.0 | 10.0 | 0.00 | 0.00 | 0.00 | 84 | 1011.3 |
| 20260506083910 | 61 | 202 | 2.0 | 8.0 | 0.00 | 0.00 | 0.00 | 84 | 1011.4 |
| 20260506083407 | 61 | 154 | 2.0 | 9.0 | 0.00 | 0.00 | 0.00 | 84 | 1011.4 |
| 20260506082905 | 61 | 188 | 3.0 | 7.0 | 0.00 | 0.00 | 0.00 | 84 | 1011.4 |
| 20260506082401 | 62 | 168 | 9.0 | 11.0 | 0.00 | 0.00 | 0.00 | 83 | 1011.4 |
| 20260506081857 | 62 | 158 | 3.0 | 6.0 | 0.00 | 0.00 | 0.00 | 83 | 1011.6 |
| 20260506081356 | 63 | 232 | 3.0 | 9.0 | 0.00 | 0.00 | 0.00 | 82 | 1011.4 |
| 20260506080853 | 63 | 154 | 5.0 | 8.0 | 0.00 | 0.00 | 0.00 | 82 | 1011.5 |
| 20260506080349 | 63 | 166 | 5.0 | 8.0 | 0.00 | 0.00 | 0.00 | 82 | 1011.6 |
| 20260506073333 | 63 | 226 | 4.0 | 13.0 | 0.00 | 0.00 | 0.00 | 81 | 1011.6 |
| 20260506072830 | 63 | 182 | 5.0 | 11.0 | 0.00 | 0.00 | 0.00 | 81 | 1011.7 |
| 20260506072328 | 63 | 191 | 2.0 | 12.0 | 0.00 | 0.00 | 0.00 | 81 | 1011.8 |
| 20260506071825 | 63 | 138 | 2.0 | 10.0 | 0.00 | 0.00 | 0.00 | 81 | 1011.7 |
| 20260506071323 | 63 | 94 | 1.0 | 12.0 | 0.00 | 0.00 | 0.00 | 80 | 1011.8 |
| 20260506070820 | 63 | 114 | 0.0 | 10.0 | 0.00 | 0.00 | 0.00 | 80 | 1011.8 |
| 20260506070317 | 63 | 300 | 1.0 | 7.0 | 0.00 | 0.00 | 0.00 | 81 | 1011.6 |
| 20260506062254 | 61 | 130 | 2.0 | 6.0 | 0.00 | 0.00 | 0.00 | 79 | 1011.6 |
| 20260506061750 | 62 | 149 | 3.0 | 9.0 | 0.00 | 0.00 | 0.00 | 78 | 1011.5 |
| 20260506061247 | 62 | 135 | 6.0 | 9.0 | 0.00 | 0.00 | 0.00 | 78 | 1011.6 |
| 20260506060746 | 62 | 154 | 3.0 | 8.0 | 0.00 | 0.00 | 0.00 | 78 | 1011.8 |
| 20260506060243 | 62 | 166 | 2.0 | 6.0 | 0.00 | 0.00 | 0.00 | 77 | 1011.7 |
| 20260506051215 | 65 | 255 | 2.0 | 8.0 | 0.00 | 0.00 | 0.00 | 74 | 1012.3 |
| 20260506050713 | 65 | 223 | 3.0 | 9.0 | 0.00 | 0.00 | 0.00 | 74 | 1012.2 |
| 20260506050210 | 65 | 186 | 4.0 | 9.0 | 0.00 | 0.00 | 0.00 | 74 | 1012.1 |
| 20260506044701 | 65 | 195 | 3.0 | 11.0 | 0.00 | 0.00 | 0.00 | 72 | 1012.3 |
| 20260506044157 | 65 | 205 | 9.0 | 12.0 | 0.00 | 0.00 | 0.00 | 73 | 1012.2 |
| 20260506043655 | 65 | 99 | 3.0 | 11.0 | 0.00 | 0.00 | 0.00 | 72 | 1012.3 |
| 20260506043152 | 66 | 269 | 0.0 | 10.0 | 0.00 | 0.00 | 0.00 | 72 | 1012.2 |
| 20260506042652 | 66 | 138 | 3.0 | 9.0 | 0.00 | 0.00 | 0.00 | 71 | 1012.2 |
| 20260506042149 | 66 | 170 | 3.0 | 20.0 | 0.00 | 0.00 | 0.00 | 71 | 1012.1 |
| 20260506041652 | 66 | 183 | 2.0 | 11.0 | 0.00 | 0.00 | 0.00 | 71 | 1012.1 |
| 20260506041144 | 66 | 218 | 6.0 | 18.0 | 0.00 | 0.00 | 0.00 | 70 | 1012.1 |
| 20260506040642 | 66 | 195 | 11.0 | 11.0 | 0.00 | 0.00 | 0.00 | 70 | 1012.0 |
| 20260506040138 | 67 | 161 | 9.0 | 13.0 | 0.00 | 0.00 | 0.00 | 69 | 1012.0 |
| 20260506035635 | 67 | 207 | 3.0 | 11.0 | 0.00 | 0.00 | 0.00 | 69 | 1012.0 |
| 20260506035131 | 67 | 186 | 6.0 | 14.0 | 0.00 | 0.00 | 0.00 | 68 | 1012.2 |
| 20260506034629 | 67 | 180 | 4.0 | 14.0 | 0.00 | 0.00 | 0.00 | 68 | 1012.1 |
| 20260506034126 | 67 | 255 | 3.0 | 17.0 | 0.00 | 0.00 | 0.00 | 67 | 1012.0 |
| 20260506033623 | 67 | 176 | 3.0 | 20.0 | 0.00 | 0.00 | 0.00 | 67 | 1012.1 |
| 20260506033120 | 67 | 66 | 2.0 | 14.0 | 0.00 | 0.00 | 0.00 | 67 | 1012.1 |
| 20260506032617 | 67 | 188 | 5.0 | 13.0 | 0.00 | 0.00 | 0.00 | 67 | 1012.1 |
| 20260506032114 | 67 | 177 | 6.0 | 14.0 | 0.00 | 0.00 | 0.00 | 67 | 1012.0 |
| 20260506031611 | 67 | 149 | 4.0 | 17.0 | 0.00 | 0.00 | 0.00 | 66 | 1011.9 |
| 20260506031108 | 67 | 185 | 8.0 | 16.0 | 0.00 | 0.00 | 0.00 | 66 | 1011.9 |
| 20260506030607 | 67 | 159 | 4.0 | 20.0 | 0.00 | 0.00 | 0.00 | 66 | 1011.8 |
| 20260506030103 | 67 | 174 | 6.0 | 11.0 | 0.00 | 0.00 | 0.00 | 66 | 1012.0 |
| 20260506025600 | 67 | 271 | 7.0 | 11.0 | 0.00 | 0.00 | 0.00 | 66 | 1012.0 |
| 20260506025056 | 67 | 215 | 11.0 | 12.0 | 0.00 | 0.00 | 0.00 | 66 | 1011.9 |
| 20260506024554 | 67 | 205 | 2.0 | 10.0 | 0.00 | 0.00 | 0.00 | 66 | 1012.2 |
| 20260506024050 | 67 | 146 | 1.0 | 15.0 | 0.00 | 0.00 | 0.00 | 66 | 1012.1 |
| 20260506023545 | 67 | 150 | 3.0 | 13.0 | 0.00 | 0.00 | 0.00 | 66 | 1011.9 |
| 20260506023043 | 67 | 163 | 2.0 | 14.0 | 0.00 | 0.00 | 0.00 | 66 | 1012.1 |
| 20260506022541 | 67 | 167 | 6.0 | 15.0 | 0.00 | 0.00 | 0.00 | 66 | 1012.0 |
| 20260506022038 | 67 | 199 | 3.0 | 12.0 | 0.00 | 0.00 | 0.00 | 66 | 1012.1 |
| 20260506021535 | 67 | 276 | 3.0 | 15.0 | 0.00 | 0.00 | 0.00 | 65 | 1012.1 |
| 20260506021033 | 67 | 169 | 5.0 | 9.0 | 0.00 | 0.00 | 0.00 | 66 | 1011.9 |
| 20260506020530 | 67 | 156 | 3.0 | 14.0 | 0.00 | 0.00 | 0.00 | 66 | 1012.0 |
| 20260506020027 | 67 | 192 | 4.0 | 14.0 | 0.00 | 0.00 | 0.00 | 65 | 1011.9 |
| 20260506015525 | 68 | 198 | 5.0 | 13.0 | 0.00 | 0.00 | 0.00 | 65 | 1012.0 |
| 20260506015022 | 68 | 173 | 9.0 | 15.0 | 0.00 | 0.00 | 0.00 | 64 | 1011.9 |
| 20260506014519 | 68 | 137 | 7.0 | 11.0 | 0.00 | 0.00 | 0.00 | 64 | 1012.1 |
| 20260506014015 | 68 | 151 | 4.0 | 15.0 | 0.00 | 0.00 | 0.00 | 64 | 1011.9 |
| 20260506013513 | 67 | 172 | 7.0 | 11.0 | 0.00 | 0.00 | 0.00 | 64 | 1011.9 |
| 20260506013010 | 67 | 233 | 6.0 | 14.0 | 0.00 | 0.00 | 0.00 | 64 | 1011.7 |
| 20260506012505 | 67 | 209 | 4.0 | 13.0 | 0.00 | 0.00 | 0.00 | 65 | 1011.7 |
| 20260506012003 | 66 | 169 | 4.0 | 11.0 | 0.00 | 0.00 | 0.00 | 65 | 1011.8 |
| 20260506011500 | 66 | 158 | 7.0 | 10.0 | 0.00 | 0.00 | 0.00 | 65 | 1011.6 |
| 20260506010956 | 66 | 199 | 3.0 | 13.0 | 0.00 | 0.00 | 0.00 | 65 | 1011.7 |
| 20260506010456 | 66 | 144 | 3.0 | 9.0 | 0.00 | 0.00 | 0.00 | 65 | 1011.6 |
| 20260506005951 | 66 | 174 | 4.0 | 13.0 | 0.00 | 0.00 | 0.00 | 65 | 1011.6 |
| 20260506005449 | 66 | 173 | 5.0 | 11.0 | 0.00 | 0.00 | 0.00 | 65 | 1011.5 |
| 20260506004944 | 66 | 172 | 3.0 | 11.0 | 0.00 | 0.00 | 0.00 | 64 | 1011.3 |
| 20260506004442 | 67 | 174 | 4.0 | 11.0 | 0.00 | 0.00 | 0.00 | 64 | 1011.4 |
| 20260506003938 | 67 | 180 | 5.0 | 10.0 | 0.00 | 0.00 | 0.00 | 64 | 1011.3 |
| 20260506003435 | 67 | 150 | 3.0 | 9.0 | 0.00 | 0.00 | 0.00 | 64 | 1011.0 |
| 20260506002931 | 67 | 124 | 2.0 | 10.0 | 0.00 | 0.00 | 0.00 | 64 | 1011.0 |
| 20260506002427 | 67 | 158 | 5.0 | 8.0 | 0.00 | 0.00 | 0.00 | 64 | 1011.1 |
| 20260506001923 | 67 | 167 | 2.0 | 13.0 | 0.00 | 0.00 | 0.00 | 64 | 1011.0 |
| 20260506001420 | 67 | 152 | 6.0 | 10.0 | 0.00 | 0.00 | 0.00 | 64 | 1011.1 |
| 20260506000917 | 67 | 180 | 6.0 | 10.0 | 0.00 | 0.00 | 0.00 | 64 | 1011.0 |
| 20260506000416 | 67 | 163 | 5.0 | 9.0 | 0.00 | 0.00 | 0.00 | 64 | 1011.1 |
| 20260505235911 | 67 | 151 | 1.0 | 6.0 | 0.00 | 0.00 | 0.00 | 65 | 1010.8 |
| 20260505235410 | 67 | 177 | 5.0 | 6.0 | 0.00 | 0.00 | 0.00 | 64 | 1010.9 |
| 20260505234906 | 68 | 133 | 4.0 | 7.0 | 0.00 | 0.00 | 0.00 | 63 | 1010.7 |
| 20260505234404 | 69 | 129 | 3.0 | 8.0 | 0.00 | 0.00 | 0.00 | 61 | 1010.5 |
| 20260505233900 | 69 | 148 | 6.0 | 8.0 | 0.00 | 0.00 | 0.00 | 62 | 1010.6 |
| 20260505233358 | 69 | 207 | 0.0 | 4.0 | 0.00 | 0.00 | 0.00 | 62 | 1010.6 |
| 20260505232855 | 69 | 155 | 3.0 | 6.0 | 0.00 | 0.00 | 0.00 | 62 | 1010.5 |
| 20260505232354 | 70 | 180 | 4.0 | 8.0 | 0.00 | 0.00 | 0.00 | 61 | 1010.1 |
| 20260505231850 | 70 | 159 | 5.0 | 6.0 | 0.00 | 0.00 | 0.00 | 61 | 1010.2 |
| 20260505231347 | 70 | 167 | 4.0 | 9.0 | 0.00 | 0.00 | 0.00 | 61 | 1010.2 |
| 20260505230845 | 70 | 156 | 7.0 | 9.0 | 0.00 | 0.00 | 0.00 | 61 | 1010.2 |
| 20260505230342 | 70 | 182 | 4.0 | 7.0 | 0.00 | 0.00 | 0.00 | 61 | 1010.0 |
| 20260505225839 | 70 | 164 | 5.0 | 12.0 | 0.00 | 0.00 | 0.00 | 61 | 1009.9 |
| 20260505225336 | 70 | 183 | 4.0 | 11.0 | 0.00 | 0.00 | 0.00 | 60 | 1010.2 |
| 20260505224831 | 71 | 160 | 7.0 | 11.0 | 0.00 | 0.00 | 0.00 | 60 | 1010.1 |
| 20260505224330 | 71 | 154 | 5.0 | 10.0 | 0.00 | 0.00 | 0.00 | 58 | 1009.9 |
| 20260505223826 | 71 | 153 | 9.0 | 17.0 | 0.00 | 0.00 | 0.00 | 58 | 1010.0 |
| 20260505223323 | 72 | 173 | 4.0 | 14.0 | 0.00 | 0.00 | 0.00 | 57 | 1009.9 |
| 20260505222819 | 74 | 114 | 4.0 | 15.0 | 0.00 | 0.00 | 0.00 | 54 | 1009.9 |
| 20260505222315 | 74 | 165 | 7.0 | 14.0 | 0.00 | 0.00 | 0.00 | 52 | 1009.7 |
| 20260505221813 | 76 | 156 | 4.0 | 13.0 | 0.00 | 0.00 | 0.00 | 50 | 1009.5 |
| 20260505221309 | 77 | 166 | 3.0 | 11.0 | 0.00 | 0.00 | 0.00 | 48 | 1009.5 |
| 20260505220806 | 77 | 162 | 4.0 | 12.0 | 0.00 | 0.00 | 0.00 | 48 | 1009.6 |
| 20260505220303 | 77 | 180 | 4.0 | 10.0 | 0.00 | 0.00 | 0.00 | 49 | 1009.5 |
| 20260505215801 | 78 | 150 | 4.0 | 11.0 | 0.00 | 0.00 | 0.00 | 44 | 1009.5 |
| 20260505215259 | 78 | 196 | 3.0 | 8.0 | 0.00 | 0.00 | 0.00 | 47 | 1009.5 |
| 20260505214756 | 76 | 198 | 6.0 | 13.0 | 0.00 | 0.00 | 0.00 | 49 | 1009.4 |
| 20260505214253 | 78 | 194 | 8.0 | 8.0 | 0.00 | 0.00 | 0.00 | 48 | 1009.4 |
| 20260505213751 | 80 | 163 | 3.0 | 16.0 | 0.00 | 0.00 | 0.00 | 42 | 1009.4 |
| 20260505213248 | 80 | 180 | 6.0 | 9.0 | 0.00 | 0.00 | 0.00 | 42 | 1009.2 |
| 20260505212743 | 83 | 214 | 3.0 | 21.0 | 0.00 | 0.00 | 0.00 | 35 | 1009.2 |
| 20260505212241 | 82 | 148 | 4.0 | 11.0 | 0.00 | 0.00 | 0.00 | 37 | 1009.1 |
| 20260505211738 | 78 | 175 | 4.0 | 7.0 | 0.00 | 0.00 | 0.00 | 47 | 1009.3 |
| 20260505211235 | 77 | 157 | 4.0 | 11.0 | 0.00 | 0.00 | 0.00 | 47 | 1009.1 |
| 20260505210731 | 77 | 173 | 4.0 | 12.0 | 0.00 | 0.00 | 0.00 | 47 | 1009.1 |
| 20260505210228 | 79 | 155 | 6.0 | 9.0 | 0.00 | 0.00 | 0.00 | 45 | 1009.2 |
| 20260505205726 | 82 | 158 | 5.0 | 14.0 | 0.00 | 0.00 | 0.00 | 39 | 1009.0 |
| 20260505205224 | 78 | 211 | 3.0 | 15.0 | 0.00 | 0.00 | 0.00 | 44 | 1009.1 |
| 20260505204720 | 78 | 177 | 2.0 | 13.0 | 0.00 | 0.00 | 0.00 | 45 | 1009.1 |
| 20260505204218 | 78 | 186 | 3.0 | 17.0 | 0.00 | 0.00 | 0.00 | 45 | 1009.1 |
| 20260505203715 | 79 | 187 | 5.0 | 16.0 | 0.00 | 0.00 | 0.00 | 44 | 1009.1 |
| 20260505203212 | 82 | 230 | 6.0 | 12.0 | 0.00 | 0.00 | 0.00 | 42 | 1009.2 |
| 20260505202708 | 84 | 320 | 1.0 | 24.0 | 0.00 | 0.00 | 0.00 | 32 | 1009.1 |
| 20260505202204 | 80 | 180 | 2.0 | 9.0 | 0.00 | 0.00 | 0.00 | 42 | 1009.4 |
| 20260505201700 | 78 | 185 | 4.0 | 11.0 | 0.00 | 0.00 | 0.00 | 46 | 1009.2 |
| 20260505201159 | 78 | 166 | 4.0 | 7.0 | 0.00 | 0.00 | 0.00 | 48 | 1009.3 |
| 20260505200656 | 78 | 157 | 5.0 | 9.0 | 0.00 | 0.00 | 0.00 | 48 | 1009.3 |
| 20260505200153 | 79 | 153 | 5.0 | 8.0 | 0.00 | 0.00 | 0.00 | 47 | 1009.4 |
| 20260505195649 | 78 | 187 | 1.0 | 9.0 | 0.00 | 0.00 | 0.00 | 49 | 1009.6 |
| 20260505195146 | 78 | 172 | 5.0 | 10.0 | 0.00 | 0.00 | 0.00 | 48 | 1009.5 |
| 20260505194643 | 79 | 229 | 6.0 | 9.0 | 0.00 | 0.00 | 0.00 | 48 | 1009.6 |
| 20260505194139 | 77 | 138 | 4.0 | 9.0 | 0.00 | 0.00 | 0.00 | 49 | 1009.6 |
| 20260505193636 | 78 | 197 | 2.0 | 7.0 | 0.00 | 0.00 | 0.00 | 49 | 1009.7 |
| 20260505193133 | 78 | 197 | 3.0 | 10.0 | 0.00 | 0.00 | 0.00 | 50 | 1009.9 |
| 20260505192632 | 78 | 144 | 0.0 | 7.0 | 0.00 | 0.00 | 0.00 | 49 | 1010.1 |
| 20260505192128 | 78 | 46 | 2.0 | 8.0 | 0.00 | 0.00 | 0.00 | 50 | 1010.1 |
| 20260505191622 | 80 | 187 | 2.0 | 9.0 | 0.00 | 0.00 | 0.00 | 48 | 1010.1 |
| 20260505191119 | 78 | 157 | 3.0 | 11.0 | 0.00 | 0.00 | 0.00 | 49 | 1010.0 |
| 20260505190615 | 78 | 170 | 4.0 | 13.0 | 0.00 | 0.00 | 0.00 | 50 | 1010.4 |
| 20260505190110 | 79 | 159 | 4.0 | 10.0 | 0.00 | 0.00 | 0.00 | 49 | 1010.5 |
| 20260505185607 | 78 | 190 | 8.0 | 10.0 | 0.00 | 0.00 | 0.00 | 50 | 1010.8 |
| 20260505185103 | 77 | 137 | 6.0 | 10.0 | 0.00 | 0.00 | 0.00 | 51 | 1010.8 |
| 20260505184559 | 75 | 181 | 6.0 | 13.0 | 0.00 | 0.00 | 0.00 | 52 | 1010.8 |
| 20260505184056 | 77 | 200 | 2.0 | 11.0 | 0.00 | 0.00 | 0.00 | 51 | 1010.7 |
| 20260505183553 | 77 | 158 | 8.0 | 10.0 | 0.00 | 0.00 | 0.00 | 50 | 1011.1 |
| 20260505183051 | 77 | 147 | 5.0 | 14.0 | 0.00 | 0.00 | 0.00 | 51 | 1011.0 |
| 20260505182547 | 77 | 147 | 4.0 | 9.0 | 0.00 | 0.00 | 0.00 | 51 | 1011.0 |
| 20260505182044 | 78 | 172 | 3.0 | 12.0 | 0.00 | 0.00 | 0.00 | 50 | 1011.0 |
| 20260505181540 | 76 | 183 | 6.0 | 9.0 | 0.00 | 0.00 | 0.00 | 51 | 1011.0 |
| 20260505181038 | 77 | 128 | 3.0 | 10.0 | 0.00 | 0.00 | 0.00 | 51 | 1011.0 |
| 20260505180533 | 76 | 170 | 5.0 | 10.0 | 0.00 | 0.00 | 0.00 | 51 | 1011.0 |
| 20260505180032 | 77 | 100 | 2.0 | 12.0 | 0.00 | 0.00 | 0.00 | 50 | 1011.0 |
| 20260505175532 | 77 | 150 | 3.0 | 13.0 | 0.00 | 0.00 | 0.00 | 50 | 1011.1 |
| 20260505175029 | 78 | 124 | 7.0 | 11.0 | 0.00 | 0.00 | 0.00 | 49 | 1011.1 |
| 20260505174526 | 78 | 149 | 3.0 | 11.0 | 0.00 | 0.00 | 0.00 | 50 | 1011.2 |
| 20260505174022 | 78 | 213 | 4.0 | 10.0 | 0.00 | 0.00 | 0.00 | 49 | 1011.3 |
| 20260505173519 | 79 | 133 | 4.0 | 7.0 | 0.00 | 0.00 | 0.00 | 48 | 1011.2 |
| 20260505173016 | 78 | 99 | 2.0 | 9.0 | 0.00 | 0.00 | 0.00 | 49 | 1011.3 |
| 20260505172514 | 79 | 210 | 2.0 | 7.0 | 0.00 | 0.00 | 0.00 | 48 | 1011.3 |
| 20260505172009 | 79 | 89 | 0.0 | 9.0 | 0.00 | 0.00 | 0.00 | 47 | 1011.4 |
| 20260505171505 | 79 | 159 | 5.0 | 11.0 | 0.00 | 0.00 | 0.00 | 48 | 1011.3 |
| 20260505171002 | 79 | 214 | 3.0 | 7.0 | 0.00 | 0.00 | 0.00 | 49 | 1011.3 |
| 20260505170459 | 78 | 146 | 3.0 | 11.0 | 0.00 | 0.00 | 0.00 | 49 | 1011.4 |
| 20260505165954 | 78 | 104 | 4.0 | 10.0 | 0.00 | 0.00 | 0.00 | 49 | 1011.6 |
| 20260505165450 | 78 | 175 | 2.0 | 9.0 | 0.00 | 0.00 | 0.00 | 48 | 1011.7 |
| 20260505164946 | 78 | 214 | 3.0 | 12.0 | 0.00 | 0.00 | 0.00 | 48 | 1011.7 |
| 20260505164442 | 80 | 151 | 4.0 | 8.0 | 0.00 | 0.00 | 0.00 | 47 | 1011.6 |
| 20260505163940 | 80 | 169 | 5.0 | 8.0 | 0.00 | 0.00 | 0.00 | 46 | 1011.6 |
| 20260505163439 | 80 | 152 | 4.0 | 5.0 | 0.00 | 0.00 | 0.00 | 45 | 1011.7 |
| 20260505162938 | 78 | 164 | 2.0 | 11.0 | 0.00 | 0.00 | 0.00 | 47 | 1012.0 |
| 20260505162433 | 78 | 113 | 3.0 | 9.0 | 0.00 | 0.00 | 0.00 | 46 | 1011.8 |
| 20260505161930 | 79 | 191 | 4.0 | 9.0 | 0.00 | 0.00 | 0.00 | 46 | 1012.1 |
| 20260505161427 | 78 | 283 | 3.0 | 9.0 | 0.00 | 0.00 | 0.00 | 46 | 1011.9 |
| 20260505160924 | 77 | 191 | 2.0 | 5.0 | 0.00 | 0.00 | 0.00 | 48 | 1012.0 |
| 20260505160423 | 77 | 137 | 4.0 | 10.0 | 0.00 | 0.00 | 0.00 | 49 | 1012.0 |
| 20260505152858 | 77 | 253 | 4.0 | 8.0 | 0.00 | 0.00 | 0.00 | 47 | 1012.3 |
| 20260505152355 | 77 | 135 | 4.0 | 9.0 | 0.00 | 0.00 | 0.00 | 47 | 1012.3 |
| 20260505151849 | 78 | 179 | 6.0 | 11.0 | 0.00 | 0.00 | 0.00 | 47 | 1012.4 |
| 20260505151347 | 76 | 193 | 4.0 | 13.0 | 0.00 | 0.00 | 0.00 | 50 | 1012.8 |
| 20260505150843 | 76 | 276 | 2.0 | 7.0 | 0.00 | 0.00 | 0.00 | 50 | 1012.8 |
| 20260505150340 | 76 | 154 | 6.0 | 7.0 | 0.00 | 0.00 | 0.00 | 50 | 1012.8 |
| 20260505140305 | 71 | 213 | 3.0 | 10.0 | 0.00 | 0.00 | 0.00 | 58 | 1013.1 |